Location: Hains Lake
(37.8540°N, 99.8578°W)
Time: 10:12:24
(UTC+00:00)

Courier 1B Rocket - Visible Passes

Search period start: 19 April 2021 00:00
Search period end: 29 April 2021 00:00
Orbit: 920 x 1202 km, 28.2° (Epoch: 18 April)

Date Brightness Start Highest point End Pass type
(mag) Time Alt. Az. Time Alt. Az. Time Alt. Az.
19 Apr 6.2 02:10:15 10° SSW 02:15:40 25° SSE 02:19:43 16° ESE visible
19 Apr 6.3 04:02:05 10° WSW 04:06:06 30° SSW 04:06:06 30° SSW visible
20 Apr 5.8 03:01:25 10° SW 03:07:32 35° S 03:09:02 32° SE visible
20 Apr 7.1 04:54:03 10° WSW 04:55:25 16° WSW 04:55:25 16° WSW visible
21 Apr 6.0 02:00:56 10° SW 02:06:37 30° SSE 02:11:54 13° ESE visible
21 Apr 5.9 03:53:11 10° WSW 03:58:17 36° SSW 03:58:17 36° SSW visible
22 Apr 5.8 02:52:27 10° WSW 02:58:34 37° S 03:01:04 29° SE visible
22 Apr 6.9 04:45:21 10° WSW 04:47:26 19° WSW 04:47:26 19° WSW visible
23 Apr 5.9 01:51:50 10° SW 01:57:38 34° S 02:03:48 10° ESE visible
23 Apr 5.8 03:44:25 10° WSW 03:50:10 36° SSW 03:50:10 36° SSW visible
24 Apr 5.8 02:43:36 10° WSW 02:49:37 37° S 02:52:51 25° SE visible
24 Apr 6.8 04:36:46 10° WSW 04:39:13 20° SW 04:39:13 20° SW visible
25 Apr 5.8 01:42:53 10° WSW 01:48:42 36° S 01:54:53 10° ESE visible
25 Apr 5.9 03:35:45 10° WSW 03:41:37 33° S 03:41:53 33° S visible
26 Apr 5.9 02:34:51 10° WSW 02:40:42 35° S 02:44:31 20° SE visible
26 Apr 6.8 04:28:23 10° WSW 04:30:52 18° SW 04:30:52 18° SW visible
27 Apr 6.1 03:27:13 10° WSW 03:32:40 27° SSW 03:33:31 27° S visible
28 Apr 6.0 02:26:12 10° WSW 02:31:46 31° S 02:36:09 16° SE visible
28 Apr 7.0 04:20:24 10° WSW 04:22:31 15° SW 04:22:31 15° SW visible
